KI4UEM Weather Reports


time (UTC)temp
C
wind
direction
speed
KPH
gust
KPH
rain 1hr
cm
rain 24hr
cm
rain mn
cm
humidity
%
barometer
mb
20260509064016 16 0.0 0.0 0.00 0.00 0.00 88 1014.5
20260509063016 16 0.0 1.6 0.00 0.00 0.00 88 1014.4
20260509062015 16 0.0 0.0 0.00 0.00 0.00 87 1014.8
20260509061015 16 0.0 1.6 0.00 0.00 0.00 87 1014.8
20260509060016 16 0 1.6 3.2 0.00 0.00 0.00 87 1014.6
20260509055015 16 0.0 0.0 0.00 0.00 0.00 87 1014.9
20260509054016 16 0.0 0.0 0.00 0.00 0.00 87 1015.5
20260509053056 16 0.0 0.0 0.00 0.00 0.00 86 1015.9
20260509052016 16 0.0 0.0 0.00 0.00 0.00 86 1015.9
20260509051015 16 0.0 0.0 0.00 0.00 0.00 85 1015.9
20260509050015 16 0.0 0.0 0.00 0.00 0.00 85 1015.4
20260509045035 16 0.0 0.0 0.00 0.00 0.00 84 1016.1
20260509044015 16 0.0 0.0 0.00 0.00 0.00 83 1016.5
20260509043015 16 0.0 0.0 0.00 0.00 0.00 82 1016.5
20260509042116 17 0.0 0.0 0.00 0.00 0.00 82 1016.5
20260509041015 17 0.0 0.0 0.00 0.00 0.00 81 1016.6
20260509040015 17 0.0 0.0 0.00 0.00 0.00 81 1016.1
20260509035016 17 0.0 0.0 0.00 0.00 0.00 81 1016.4
20260509034015 17 0.0 0.0 0.00 0.00 0.00 81 1016.5
20260509033015 17 0.0 3.2 0.00 0.00 0.00 80 1016.6
20260509032036 17 0.0 3.2 0.00 0.00 0.00 80 1016.5
20260509031016 17 0 1.6 3.2 0.00 0.00 0.00 80 1016.5
20260509030016 17 0.0 3.2 0.00 0.00 0.00 80 1016.5
20260509025036 17 0 1.6 4.8 0.00 0.00 0.00 80 1016.6
20260509024015 17 0 1.6 6.4 0.00 0.00 0.00 80 1016.5
20260509022016 17 0 1.6 8.0 0.00 0.00 0.00 81 1016.4
20260509021015 17 0.0 3.2 0.00 0.00 0.00 80 1016.7
20260509020015 17 0.0 1.6 0.00 0.00 0.00 80 1016.4
20260509015056 18 0.0 0.0 0.00 0.00 0.00 79 1016.6
20260509014016 18 0.0 0.0 0.00 0.00 0.00 79 1016.4
20260509013015 18 0.0 0.0 0.00 0.00 0.00 78 1016.4
20260509012015 18 0.0 0.0 0.00 0.00 0.00 78 1016.1
20260509011016 18 0.0 1.6 0.00 0.00 0.00 78 1016.0
20260509010015 19 0.0 0.0 0.00 0.00 0.00 78 1015.9
20260509005016 19 0.0 0.0 0.00 0.00 0.00 77 1016.0
20260509004015 19 0.0 0.0 0.00 0.00 0.00 76 1015.9
20260509003015 20 0.0 0.0 0.00 0.00 0.00 75 1015.7
20260509002015 20 0.0 0.0 0.00 0.00 0.00 75 1015.5
20260509001015 20 0.0 0.0 0.00 0.00 0.00 73 1015.4
20260509000056 20 0.0 0.0 0.00 0.00 0.00 72 1015.4
20260508235035 21 0.0 0.0 0.00 0.00 0.00 72 1015.5
20260508234017 21 0.0 0.0 0.00 0.00 0.00 68 1015.4
20260508233018 21 0.0 0.0 0.00 0.00 0.00 68 1015.1
20260508232017 21 0.0 0.0 0.00 0.00 0.00 68 1015.1
20260508231056 21 0.0 0.0 0.00 0.00 0.00 67 1015.2
20260508230017 21 0.0 0.0 0.00 0.00 0.00 66 1015.4
20260508225138 21 0.0 0.0 0.00 0.00 0.00 64 1015.5
20260508224017 21 0.0 0.0 0.00 0.00 0.00 63 1015.3
20260508223017 21 0.0 1.6 0.00 0.00 0.00 61 1015.4
20260508222017 21 0.0 3.2 0.00 0.00 0.00 60 1015.6
20260508221017 21 0.0 3.2 0.00 0.00 0.00 57 1015.3
20260508220017 22 0.0 4.8 0.00 0.00 0.00 58 1015.4
20260508215017 22 0.0 3.2 0.00 0.00 0.00 58 1015.3
20260508214017 22 203 1.6 8.0 0.00 0.00 0.00 54 1015.4
20260508213017 22 203 1.6 4.8 0.00 0.00 0.00 53 1015.5
20260508212017 22 203 1.6 3.2 0.00 0.00 0.00 53 1015.3
20260508211017 22 0.0 3.2 0.00 0.00 0.00 50 1015.2
20260508210017 22 203 1.6 4.8 0.00 0.00 0.00 48 1015.4
20260508205017 22 203 1.6 4.8 0.00 0.00 0.00 49 1015.6
20260508204017 22 203 3.2 6.4 0.00 0.00 0.00 49 1015.9
20260508203037 22 203 3.2 9.7 0.00 0.00 0.00 49 1015.9
20260508202017 23 203 3.2 11.3 0.00 0.00 0.00 45 1016.0
20260508201017 23 225 4.8 11.3 0.00 0.00 0.00 50 1015.9
20260508200017 22 225 4.8 11.3 0.00 0.00 0.00 45 1016.0
20260508195037 22 225 4.8 11.3 0.00 0.00 0.00 48 1015.7
20260508194037 23 203 3.2 9.7 0.00 0.00 0.00 50 1016.1
20260508193017 22 203 3.2 11.3 0.00 0.00 0.00 52 1016.0
20260508192017 22 0.0 3.2 0.00 0.00 0.00 51 1016.3
20260508191017 22 113 3.2 6.4 0.00 0.00 0.00 48 1016.7
20260508190017 22 135 3.2 6.4 0.00 0.00 0.00 47 1017.0
20260508185017 22 158 4.8 8.0 0.00 0.00 0.00 46 1017.1
20260508184017 22 158 3.2 12.9 0.00 0.00 0.00 49 1017.0
20260508183018 22 225 6.4 12.9 0.00 0.00 0.00 47 1017.2
20260508182017 22 113 3.2 12.9 0.00 0.00 0.00 48 1017.4
20260508181017 22 135 1.6 8.0 0.00 0.00 0.00 46 1017.4
20260508180017 22 135 3.2 8.0 0.00 0.05 0.00 49 1017.6
20260508175017 21 158 3.2 8.0 0.00 0.08 0.00 47 1017.6
20260508174017 22 180 3.2 11.3 0.00 0.13 0.00 49 1017.7
20260508173037 22 203 4.8 9.7 0.00 0.18 0.00 51 1017.8
20260508172017 21 68 3.2 8.0 0.00 0.23 0.00 47 1017.9
20260508171017 22 90 3.2 11.3 0.00 0.25 0.00 45 1017.9
20260508170017 21 113 3.2 11.3 0.00 0.46 0.00 47 1018.3
20260508165017 21 158 4.8 12.9 0.00 0.51 0.00 53 1018.4
20260508164017 21 158 1.6 9.7 0.00 0.56 0.00 50 1018.5
20260508163017 21 90 3.2 6.4 0.00 0.56 0.00 46 1018.7
20260508162017 21 90 3.2 12.9 0.00 0.56 0.00 52 1018.6
20260508161017 21 113 3.2 11.3 0.00 0.58 0.00 50 1018.6
20260508160017 22 180 3.2 11.3 0.00 0.58 0.00 46 1018.7
20260508155038 21 45 3.2 12.9 0.00 0.58 0.00 48 1018.8
20260508154037 21 135 3.2 12.9 0.00 0.58 0.00 52 1019.0
20260508153017 21 90 3.2 9.7 0.00 0.58 0.00 52 1019.1
20260508152017 21 45 3.2 11.3 0.00 0.61 0.00 50 1019.3
20260508151017 20 90 6.4 12.9 0.00 0.61 0.00 48 1019.3
20260508150017 21 90 4.8 16.1 0.00 0.61 0.00 53 1019.3
20260508145017 20 45 3.2 6.4 0.00 0.61 0.00 53 1019.2
20260508144016 20 90 6.4 12.9 0.00 0.61 0.00 52 1019.4
20260508143017 20 68 4.8 12.9 0.00 0.66 0.00 56 1019.3
20260508142017 19 68 3.2 12.9 0.00 0.71 0.00 60 1019.3
20260508141037 20 90 3.2 6.4 0.00 0.74 0.00 58 1019.4
20260508140016 19 90 4.8 16.1 0.00 0.81 0.00 63 1019.3
20260508135017 18 90 4.8 12.9 0.00 0.97 0.00 64 1019.1
20260508134017 18 113 4.8 9.7 0.00 0.97 0.00 73 1019.1
20260508133016 17 0 4.8 14.5 0.00 0.97 0.00 72 1019.0
20260508132117 17 113 1.6 11.3 0.00 0.97 0.00 74 1018.9
20260508131017 17 45 1.6 6.4 0.00 0.97 0.00 79 1018.6
20260508130117 16 45 3.2 8.0 0.00 0.97 0.00 79 1018.6
20260508125016 16 0 1.6 6.4 0.00 0.97 0.00 83 1018.6
20260508124017 16 0.0 4.8 0.00 0.97 0.00 86 1018.4
20260508123037 15 0 1.6 8.0 0.00 0.97 0.00 88 1018.3
20260508122016 15 0 1.6 6.4 0.00 0.97 0.00 90 1018.3
20260508121016 15 0.0 3.2 0.00 0.97 0.00 92 1018.1
20260508120016 14 0.0 1.6 0.00 0.97 0.00 93 1018.1
20260508115037 13 0.0 0.0 0.00 0.97 0.00 92 1017.9
20260508114016 12 0.0 0.0 0.00 0.97 0.00 92 1017.6
20260508113016 12 0.0 0.0 0.00 0.97 0.00 91 1017.5
20260508112016 12 0.0 0.0 0.00 0.97 0.00 91 1017.2
20260508111036 12 0.0 0.0 0.00 0.97 0.00 91 1017.0
20260508110057 12 0.0 0.0 0.00 0.97 0.00 91 1016.9
20260508105017 12 0.0 0.0 0.00 0.97 0.00 90 1016.7
20260508104016 12 0.0 0.0 0.00 0.97 0.00 90 1016.7
20260508103016 12 0.0 0.0 0.00 0.97 0.00 90 1016.6
20260508102016 12 0.0 0.0 0.00 0.97 0.00 90 1016.3
20260508101016 12 0.0 0.0 0.00 0.97 0.00 89 1016.1
20260508100036 12 0.0 0.0 0.00 0.97 0.00 89 1016.1
20260508095016 12 0.0 0.0 0.00 0.97 0.00 89 1015.9
20260508094016 12 0.0 0.0 0.00 0.99 0.00 88 1016.0
20260508093016 12 0.0 0.0 0.00 1.09 0.00 88 1015.9
20260508092037 13 0.0 0.0 0.00 1.17 0.00 88 1015.5
20260508091016 13 0.0 0.0 0.00 1.27 0.00 88 1015.6
20260508090016 13 0.0 0.0 0.00 1.30 0.00 88 1015.4
20260508085016 13 0.0 0.0 0.00 1.32 0.00 87 1015.4
20260508084056 13 0.0 0.0 0.00 1.35 0.00 87 1015.4
20260508083016 13 0.0 0.0 0.00 1.37 0.00 86 1015.4
20260508082016 14 0.0 0.0 0.00 1.42 0.00 85 1015.6
20260508081016 14 0.0 0.0 0.00 1.42 0.00 85 1015.5
20260508080016 14 0.0 0.0 0.00 1.42 0.00 85 1015.3
20260508075016 15 0.0 0.0 0.00 1.42 0.00 84 1015.2
20260508074016 15 0.0 0.0 0.00 1.42 0.00 84 1015.2
20260508073016 15 0.0 0.0 0.00 1.42 0.00 84 1015.1
20260508072016 15 0.0 0.0 0.00 1.42 0.00 83 1015.2
20260508071016 16 0.0 0.0 0.00 1.42 0.00 84 1015.0
20260508070016 16 0.0 0.0 0.00 1.42 0.00 83 1014.8
20260508065016 16 0.0 3.2 0.00 1.42 0.00 83 1014.9